Regional Weather Roundup
Issued by NWS

Home | Current Version | Previous Version | Text Only | Print | Product List | Glossary On
Versions: 1 2 3 4 5 6 7 8 9 10 11 12 13 14 15 16 17 18 19 20 21 22 23 24 25 26 27 28 29 30 31 32 33 34 35 36 37 38 39 40 41 42 43 44 45 46 47 48 49 50
344
ASUS44 KLIX 221105
RWRLA
LOUISIANA WEATHER ROUNDUP
NATIONAL WEATHER SERVICE NEW ORLEANS LA
500 AM CST SAT NOV 22 2014

NOTE: "FAIR" INDICATES FEW OR NO CLOUDS BELOW 12,000 FEET WITH NO
      SIGNIFICANT WEATHER AND/OR OBSTRUCTIONS TO VISIBILITY.
      SKY/WX - SKY CONDITION AND SIGNIFICANT WEATHER.
      TMP - AIR TEMPERATURE.    DP   - DEWPOINT TEMPERATURE.
      RH  - RELATIVE HUMIDITY.  PRES - PRESSURE.
      HX  - HEAT INDEX.         WCI  - WIND CHILL INDEX.

*  THESE STATIONS ARE NOT NWS OR FAA STATIONS AND ARE NOT UNDER
   NWS QUALITY CONTROL.

LAZ040-048-061>063-065-066-069-221200-
SOUTHEAST LOUISIANA

CITY           SKY/WX    TMP DP  RH WIND       PRES   REMARKS
N.O. AUDUBON   NOT AVBL
N.O. INTL ARPT PTCLDY    55  51  86 E5        30.21F
N.O. LAKEFRONT CLEAR     56  51  84 E10       30.22S
N.O. DOWNTOWN* FAIR      57  48  72 NE7       30.21S
SLIDELL        CLEAR     52  46  80 E5        30.22F
BATON ROUGE    MOCLDY    53  48  83 E8        30.21F
BOOTHVILLE     CLEAR     60  57  89 NE3       30.20S
BELLE CHASSE   PTCLDY    55  51  86 NE7       30.21R
BOGALUSA*        N/A     44  41  90 CALM      30.25F
NEW ROADS*     FAIR      54  49  85 E5        30.20F
GONZALES*      FAIR      52  52 100 NE3       30.20F
HAMMOND*       CLEAR     52  46  82 E5        30.23F
HOUMA*         PTCLDY    54  52  94 NE6       30.18F
PORT FOURCHON* MOSUNNY   61  57  88 NE8       30.20F

$$

LAZ041-044-053-054-221200-
SOUTHWEST LOUISIANA

CITY           SKY/WX    TMP DP  RH WIND       PRES   REMARKS
LAKE CHARLES   CLEAR     54  49  83 E6        30.16S
LAFAYETTE      CLOUDY    56  50  80 E5        30.18F
PATTERSON      CLEAR     54  50  87 E7        30.20S
SALT POINT       N/A     56  52  86 CALM      30.16F
NEW IBERIA     CLOUDY    57  51  80 E5        30.19S
CHENAULT AIRPK NOT AVBL

$$

LAZ027-028-221200-
CENTRAL LOUISIANA

CITY           SKY/WX    TMP DP  RH WIND       PRES   REMARKS
FORT POLK      CLEAR     55  50  84 SE9       30.16F
ALEXANDRIA INT CLOUDY    58  50  75 SE12      30.18F
ALEXANDRIA     CLOUDY    57  51  80 E3        30.21S

$$

LAZ001-002-221200-
NORTHWEST LOUISIANA

CITY           SKY/WX    TMP DP  RH WIND       PRES   REMARKS
SHREVEPORT     CLOUDY    57  52  83 SE9       30.16S
BARKSDALE AFB  MOCLDY    56  52  86 SE7       30.16F
DTN SHREVEPORT MOCLDY    57  50  77 SE8       30.16F

$$

LAZ014-016-221200-
NORTHEAST LOUISIANA

CITY           SKY/WX    TMP DP  RH WIND       PRES   REMARKS
MONROE         CLOUDY    57  51  80 E6        30.24S
TALLULAH       CLOUDY    53  47  79 E6        30.25F

$$




USA.gov is the U.S. government's official web portal to all federal, state and local government web resources and services.